CAPE
76 265 0 0 0 0 0 0 0 0 0 0 0 0 0 0 0 0 0 37 139 163 71 94 175 62 29 45 30 3 40 209 213
204 240 16 0 0 0 0 0 0 0 0 0 0 0 0 0 0 0 49 139 89 55 13 2 25 152 121 150 100 80 200 216 189
376 110 38 0 0 0 0 0 0 0 0 0 0 0 0 0 0 0 3 54 43 0 0 0 0 3 11 78 127 131 148 127 127
131 105 55 34 20 0 0 0 0 0 0 0 0 0 0 0 0 0 0 0 0 0 0 0 0 0 0 0 0 20 49 57 36
99 90 68 32 24 8 0 0 0 0 0 0 0 0 0 0 0 0 0 0 0 0 0 0 0 0 0 0 0 2 6 8 7
70 50 46 35 24 15 7 0 1 0 0 0 0 0 0 0 0 0 0 18 0 0 0 0 0 0 0 0 0 0 1 1 2
35 36 43 46 37 31 25 19 13 5 0 0 0 0 0 0 0 0 13 45 31 0 0 0 0 0 0 0 0 0 0 0 1
5 5 14 21 27 26 32 31 15 0 0 0 0 0 0 0 0 0 5 59 62 21 0 0 0 0 0 0 0 0 0 0 0
0 0 0 0 0 4 6 8 5 0 0 0 0 0 0 0 0 0 1 26 54 45 0 0 0 0 0 0 0 0 0 0 0
0 0 0 0 0 0 0 0 0 0 0 0 0 0 0 0 0 0 0 3 33 45 31 0 0 0 0 1 1 1 1 1 0
0 0 0 0 0 0 0 0 0 0 0 0 0 0 0 0 0 0 0 0 3 27 22 9 0 0 2 2 3 1 4 3 2
0 0 0 0 0 0 0 0 0 0 0 0 0 0 0 0 0 0 0 0 0 0 21 4 1 0 1 3 7 4 4 3 2
0 0 0 0 0 0 0 0 0 0 0 0 0 0 0 0 0 0 0 0 0 0 0 0 0 0 0 2 5 5 4 5 6
0 0 0 0 0 0 0 0 0 0 0 0 0 0 0 0 0 0 0 0 0 0 0 0 0 0 0 1 5 9 4 3 5
0 0 0 0 0 0 0 0 0 0 0 0 0 0 0 0 0 0 0 0 0 0 0 0 0 0 0 0 2 11 20 1 1
0 0 0 0 0 0 0 0 0 0 0 0 0 0 0 0 0 0 0 0 0 0 0 0 0 0 0 0 0 0 8 30 0
2 0 0 0 0 0 0 0 0 0 0 0 0 0 1 0 0 0 0 0 0 0 0 0 0 0 0 0 0 0 6 33 46
8 30 41 20 0 0 0 0 0 0 0 0 4 11 0 0 0 0 0 0 0 0 0 0 0 0 0 0 0 0 17 21 42
0 0 0 25 25 0 0 0 0 0 0 0 0 0 0 7 1 0 0 0 0 0 0 0 0 0 0 0 0 0 5 10 7
0 0 0 0 0 0 0 2 0 0 7 0 0 0 0 0 0 2 0 0 0 0 0 0 0 0 0 0 0 0 0 8 30
CIN
-109 -21 0 0 0 0 0 0 0 0 0 0 0 0 0 0 0 0 0 -66 -9 -0 -21 -17 -1 -28 -58 -38 -61 -31 -37 -9 -9
-49 -41 -50 0 0 0 0 0 0 0 0 0 0 0 0 0 0 0 -62 -19 -21 -33 -83 -0 -7 -9 -5 -32 -12 -34 -19 -15 -20
-53 -98 -143 0 0 0 0 0 0 0 0 0 0 0 0 0 0 0 -8 -40 -48 0 0 0 0 -2 -24 -16 -24 -53 -17 -19 -52
-118 -120 -150 -166 -182 0 0 0 0 0 0 0 0 0 0 0 0 0 0 0 0 0 0 0 0 0 0 0 -0 -14 -35 -33 -51
-142 -150 -163 -195 -222 -160 0 0 0 -7 0 0 0 0 0 0 0 0 0 0 0 0 0 0 0 0 0 0 0 -0 -3 -7 -7
-162 -179 -178 -186 -215 -245 -291 -14 -81 0 0 0 0 0 0 0 0 0 0 -104 0 0 0 0 0 0 0 0 0 -0 -0 -0 -0
-222 -224 -205 -192 -214 -231 -252 -271 -282 -237 0 0 0 0 0 0 0 0 -144 -90 -123 0 0 0 0 0 0 0 0 -0 -0 -0 -0
-351 -345 -308 -278 -254 -273 -248 -236 -299 0 0 0 0 0 0 0 0 0 -184 -77 -93 -131 0 0 0 0 0 0 0 0 0 0 0
0 0 0 0 -21 -314 -308 -303 -310 0 0 0 0 0 0 0 0 0 -165 -117 -87 -101 -2 0 0 0 0 0 -0 -0 0 -0 0
0 0 0 0 0 0 0 0 0 0 0 0 0 0 0 0 0 0 0 -126 -121 -98 -119 0 0 0 0 -0 0 -0 -0 -0 -0
0 0 0 0 0 0 0 0 0 0 0 0 0 0 0 0 0 0 0 0 -106 -111 -106 -139 0 -0 -0 -0 -0 0 -0 -0 -0
0 0 0 0 0 0 0 0 0 0 0 0 0 0 0 0 0 0 0 0 0 -8 -111 -143 -0 0 -0 -0 -0 0 0 -0 -0
0 0 0 0 0 0 0 0 0 0 0 0 0 0 0 0 0 0 0 0 0 0 0 0 0 0 0 -0 0 -0 -0 -0 -0
0 0 0 0 0 0 0 0 0 0 0 0 0 0 0 0 0 0 0 0 0 0 0 0 0 0 0 -0 -0 -1 -0 -0 -0
0 0 0 0 0 0 0 0 0 0 0 0 0 0 0 0 0 0 0 0 0 0 0 0 0 0 0 0 -0 -0 -1 -0 -0
0 0 0 0 0 0 0 0 0 0 0 0 0 0 0 0 0 0 0 0 0 0 0 0 0 0 0 0 0 0 -1 -0 -0
-18 0 0 0 0 0 0 0 0 0 0 0 0 0 -3 0 0 0 0 0 0 0 0 0 0 0 0 0 0 0 -2 -0 -1
-28 -66 -81 -68 0 0 0 0 0 0 0 0 -28 -7 -4 0 0 0 0 0 0 0 0 0 0 0 0 0 0 0 -5 -0 -2
0 0 0 -61 -53 0 0 0 0 0 0 0 0 0 0 -8 -6 0 0 0 0 0 0 0 0 0 0 0 0 0 -19 -5 -14
0 0 0 0 0 0 0 -8 -3 0 -28 0 0 0 0 0 0 -5 -0 0 0 0 0 0 0 0 0 0 0 0 0 -1 0
Wind_Speed
20 20 20 20 21 22 21 21 21 21 21 21 21 21 21 20 20 19 20 21 23 22 23 24 23 19 20 20 20 20 20 20 19
19 19 19 19 20 21 20 20 20 20 20 21 21 21 21 21 21 20 20 20 21 21 22 22 22 21 22 20 19 19 18 19 19
19 18 18 18 19 19 19 19 19 19 20 20 20 20 20 20 20 20 20 20 21 21 21 21 20 20 20 20 20 19 18 18 18
17 17 16 17 17 18 18 18 18 18 19 19 19 18 17 18 19 19 19 20 21 21 21 21 20 20 20 19 18 19 18 19 18
15 15 14 14 15 16 16 16 17 18 18 18 18 17 15 16 18 18 19 20 20 21 21 21 21 21 20 19 18 16 17 18 18
12 12 12 13 13 14 14 14 15 15 16 16 16 17 14 14 16 16 17 18 19 20 20 20 20 20 20 19 18 17 16 16 16
10 10 10 11 12 12 13 13 14 14 15 15 15 14 13 13 14 15 15 16 17 18 19 19 19 19 19 18 17 17 16 16 15
9 9 9 10 11 12 12 13 13 13 13 14 13 12 12 13 12 13 13 14 16 17 18 18 18 18 18 18 18 17 16 15 15
7 7 8 8 10 10 11 12 11 12 13 14 14 13 11 13 13 12 12 13 15 16 17 18 18 18 18 17 17 16 16 15 14
7 6 8 8 9 10 10 10 10 11 13 14 14 13 12 12 14 12 12 12 13 14 15 16 16 17 17 17 17 16 15 15 14
7 7 7 8 9 10 10 10 10 11 12 13 13 13 14 14 14 14 13 13 14 14 14 15 16 16 16 16 16 16 15 15 14
7 7 8 8 10 11 11 11 13 13 13 14 14 15 14 16 15 15 15 14 13 13 13 14 15 15 15 16 16 16 15 14 14
8 9 10 11 11 11 12 13 14 14 14 15 15 16 17 17 17 17 17 16 15 14 14 14 15 14 14 15 15 15 15 15 14
11 11 12 13 14 13 14 16 16 17 18 18 19 19 19 19 19 19 19 18 18 17 15 14 15 15 15 15 15 15 15 16 16
13 15 15 15 17 17 18 18 19 20 22 24 25 24 23 21 21 20 20 19 18 17 17 17 17 16 17 16 17 17 16 16 18
18 19 20 18 18 19 20 23 23 25 24 28 29 28 24 22 22 21 20 20 20 19 18 18 18 19 18 18 18 18 19 17 17
23 23 23 22 21 22 23 23 26 26 24 26 29 33 29 24 21 21 20 20 22 21 20 20 20 20 20 21 20 20 20 21 19
27 26 25 23 23 25 25 25 24 26 25 21 24 30 31 31 27 25 25 25 24 23 22 20 20 21 22 23 23 23 23 25 28
29 29 29 28 26 25 25 23 22 23 24 23 20 23 27 31 33 26 25 25 25 24 24 23 23 23 23 22 23 25 26 29 31
27 28 28 27 26 25 23 22 21 20 22 22 23 24 23 23 24 31 27 26 25 26 25 25 25 23 23 23 24 25 27 31 30
Wind_Direction
66 70 63 56 48 48 51 56 54 48 41 37 37 41 44 45 40 46 43 38 38 36 25 16 20 36 23 21 22 20 19 24 32
65 69 63 57 50 51 54 54 52 47 41 36 38 44 46 41 41 46 39 37 27 19 14 13 10 17 12 19 21 18 26 29 29
61 62 60 53 51 51 52 50 48 41 37 34 35 45 45 39 36 35 29 23 19 16 15 14 15 6 5 11 15 21 22 22 19
56 58 55 52 50 48 47 46 41 34 30 31 32 42 42 35 29 25 22 18 17 15 14 14 12 7 3 3 5 4 5 3 5
57 57 57 54 53 48 47 45 35 26 21 24 25 30 38 31 25 23 22 19 18 15 14 13 11 7 5 4 4 8 359 354 354
37 39 43 43 40 36 40 35 29 25 23 24 23 22 35 31 26 22 21 20 17 14 13 12 11 8 6 5 6 5 5 2 2
27 29 33 32 28 28 25 21 18 15 14 13 12 15 22 20 16 17 19 16 13 12 11 9 7 6 5 4 4 3 3 2 2
22 21 17 14 10 10 9 9 9 10 9 7 8 10 9 7 8 7 8 7 5 6 6 4 3 3 2 1 359 359 358 358 358
19 19 15 13 7 6 359 360 1 0 358 356 356 356 356 354 356 356 357 357 355 356 356 357 357 355 355 354 354 353 352 352 352
4 9 6 6 2 359 356 354 354 352 349 348 349 350 348 345 346 346 346 345 345 345 347 350 351 351 349 348 346 345 346 345 343
355 355 354 355 355 353 351 352 349 344 344 342 342 339 339 339 337 338 336 334 334 335 337 340 341 341 342 341 341 339 338 337 336
343 341 339 339 341 343 345 344 341 339 338 334 333 334 331 332 331 331 330 327 326 326 325 329 332 333 333 332 330 331 330 329 328
326 327 327 331 330 330 331 333 332 330 329 328 327 327 327 326 324 325 324 323 321 319 317 318 320 323 324 324 323 322 321 319 320
313 316 318 320 320 319 319 321 321 323 324 323 323 322 319 318 319 317 317 318 317 316 313 309 311 313 313 315 315 313 311 312 309
307 309 310 311 312 313 314 311 315 315 317 319 318 317 316 315 314 312 311 311 310 309 307 308 308 306 305 306 307 307 303 302 302
310 308 308 307 306 307 310 312 310 312 314 316 315 315 314 313 312 311 308 306 308 307 308 306 305 305 301 298 297 299 299 294 292
305 306 305 304 304 306 308 309 311 312 314 313 317 317 320 320 317 319 318 315 316 311 309 305 304 303 301 299 293 292 293 294 287
304 305 305 305 305 305 307 308 309 311 314 311 314 319 319 324 324 324 324 322 322 319 315 309 305 302 300 297 295 292 292 292 292
309 307 306 305 305 305 307 310 311 314 314 317 313 314 318 320 321 328 328 325 325 324 322 317 314 310 305 299 295 293 291 285 286
314 314 313 311 308 307 308 311 313 315 316 316 320 320 320 322 322 323 328 330 331 329 326 322 319 314 309 305 301 296 294 289 282